Blythe, CA

5:11 PM PDT on April 30, 2017 (GMT -0700)
Blythe

Weather History for KBLH - July, 2014

Change the Weather History Date:

Friday, July 4, 2014

  Actual Average Record
Temperature  
Mean Temperature 94 °F -  
Max Temperature 102 °F 105 °F 116 °F (1981)
Min Temperature 87 °F 77 °F 68 °F (1995)
Cooling Degree Days 30    
Growing Degree Days 44 (Base 50)    
Moisture  
Dew Point 63 °F    
Average Humidity 36    
Maximum Humidity 50    
Minimum Humidity 23    
Precipitation  
Precipitation 0.00 in - - ()
Sea Level Pressure  
Sea Level Pressure 29.89 in    
Wind  
Wind Speed 10 mph (SSW)    
Max Wind Speed 18 mph    
Max Gust Speed 21 mph    
Visibility 10 miles    
Events Thunderstorm    
Averages and records for this station are not official NWS values.
T = Trace of Precipitation, MM = Missing Value Source: NWS Daily Summary

Daily Weather History Graph

Daily Weather History Graph

Search for Another Location

Airport or City:

Trip Planner

Search our weather history database for the weather conditions in past years. The results will help you decide how hot, cold, wet, or windy it might be!

Date:

Astronomy

Jul. 04, 2014 Rise Set
Actual Time 5:33 AM PDT 7:52 PM PDT
Civil Twilight 5:04 AM PDT 8:21 PM PDT
Nautical Twilight 4:29 AM PDT 8:56 PM PDT
Astronomical Twilight 3:50 AM PDT 9:35 PM PDT
Moon 12:12 PM PDT (7/4) No Moon Set
Length of Visible Light 15h 16m
Length of Day
14h 19m
Waxing Crescent, 43% of the Moon is Illuminated
Jul 4
Waxing Crescent
Jul 5
First Quarter
Jul 12
Full
Jul 18
Last Quarter
Jul 26
New

Hourly Weather History & Observations

Time (PDT) Temp. Heat Index Dew Point Humidity Pressure Visibility Wind Dir Wind Speed Gust Speed Precip Events Conditions
12:52 AM 88.0 °F 89.3 °F 64.0 °F 45% 29.91 in 10.0 mi SSE 10.4 mph - N/A   Clear
1:52 AM 87.1 °F 89.2 °F 66.0 °F 49% 29.93 in 10.0 mi South 5.8 mph - N/A   Clear
2:52 AM 87.1 °F 88.9 °F 64.9 °F 48% 29.94 in 10.0 mi SE 10.4 mph - N/A   Clear
3:52 AM 88.0 °F 88.7 °F 63.0 °F 43% 29.92 in 10.0 mi SSE 9.2 mph - N/A   Clear
4:52 AM 87.1 °F 87.8 °F 63.0 °F 44% 29.89 in 10.0 mi SW 11.5 mph - N/A   Clear
5:52 AM 88.0 °F 88.7 °F 63.0 °F 43% 29.91 in 10.0 mi WSW 6.9 mph - N/A   Clear
6:52 AM 88.0 °F 88.7 °F 63.0 °F 43% 29.94 in 10.0 mi WSW 4.6 mph - N/A   Clear
8:52 AM 93.0 °F 94.2 °F 63.0 °F 37% 29.94 in 10.0 mi WSW 11.5 mph - N/A   Clear
9:52 AM 95.0 °F 95.6 °F 62.1 °F 33% 29.94 in 10.0 mi SSE 8.1 mph - N/A   Clear
10:52 AM 97.0 °F 97.8 °F 62.1 °F 31% 29.94 in 10.0 mi ESE 9.2 mph - N/A   Clear
11:52 AM 99.0 °F 100.5 °F 62.1 °F 30% 29.92 in 10.0 mi South 9.2 mph - N/A   Clear
12:52 PM 100.0 °F 101.8 °F 62.1 °F 29% 29.90 in 10.0 mi South 10.4 mph 18.4 mph N/A   Clear
1:52 PM 102.9 °F 104.2 °F 61.0 °F 25% 29.88 in 10.0 mi South 15.0 mph 19.6 mph N/A   Clear
2:52 PM 102.0 °F 101.6 °F 57.9 °F 23% 29.86 in 10.0 mi North - - N/A   Clear
3:14 PM 100.9 °F 100.0 °F 57.0 °F 23% 29.87 in 10.0 mi South 9.2 mph - N/A Thunderstorm Clear
3:29 PM 100.0 °F 101.2 °F 61.0 °F 28% 29.86 in 10.0 mi WSW 16.1 mph 20.7 mph N/A   Clear
3:47 PM 100.4 °F 102.4 °F 62.6 °F 29% 29.86 in 10.0 mi WSW 15.0 mph - N/A   Clear
3:52 PM 100.0 °F 101.8 °F 62.1 °F 29% 29.83 in 10.0 mi WSW 18.4 mph - N/A   Clear
4:52 PM 98.1 °F 99.6 °F 63.0 °F 31% 29.83 in 10.0 mi West 12.7 mph - N/A   Clear
5:52 PM 100.9 °F 102.7 °F 62.1 °F 28% 29.82 in 10.0 mi WSW 11.5 mph - N/A   Clear
6:52 PM 100.0 °F 101.8 °F 62.1 °F 29% 29.82 in 10.0 mi SW 8.1 mph - N/A   Clear
7:52 PM 99.0 °F 98.6 °F 59.0 °F 26% 29.82 in 10.0 mi South 4.6 mph - N/A   Clear
8:52 PM 93.9 °F 97.0 °F 66.0 °F 40% 29.84 in 10.0 mi South 12.7 mph - N/A   Clear
9:52 PM 93.9 °F 99.1 °F 69.1 °F 44% 29.87 in 10.0 mi South 13.8 mph - N/A   Clear
10:52 PM 93.9 °F 98.6 °F 68.0 °F 43% 29.89 in 10.0 mi SSW 13.8 mph - N/A   Clear
11:52 PM 90.0 °F 94.5 °F 69.1 °F 50% 29.90 in 10.0 mi South 6.9 mph - N/A   Clear